Asturias, Spain

2:02 PM CET on February 06, 2016 (GMT +0100)
Asturias

Weather History for LEAS - March, 2013

Change the Weather History Date:

Sunday, March 3, 2013

  Actual Average Record
Temperature  
Mean Temperature 48 °F -  
Max Temperature 55 °F 57 °F 69 °F (1997)
Min Temperature 41 °F 45 °F 37 °F (2005)
Degree Days  
Heating Degree Days 17    
Moisture  
Dew Point 41 °F    
Average Humidity 79    
Maximum Humidity 93    
Minimum Humidity 67    
Precipitation  
Precipitation 0.00 in - - ()
Sea Level Pressure  
Sea Level Pressure 29.84 in    
Wind  
Wind Speed 4 mph ()    
Max Wind Speed 9 mph    
Max Gust Speed -    
Visibility 5.2 miles    
Events      
Averages and records for this station are not official NWS values.
T = Trace of Precipitation, MM = Missing Value Source: Averaged Metar Reports

Daily Weather History Graph

Daily Weather History Graph

Search for Another Location

Airport or City:

Trip Planner

Search our weather history database for the weather conditions in past years. The results will help you decide how hot, cold, wet, or windy it might be!

Date:

Astronomy

Mar. 03, 2013 Rise Set
Actual Time 7:57 AM CET 7:15 PM CET
Civil Twilight 7:28 AM CET 7:44 PM CET
Nautical Twilight 6:55 AM CET 8:17 PM CET
Astronomical Twilight 6:22 AM CET 8:50 PM CET
Moon 12:50 AM CET (3/3) 10:49 AM CET (3/3)
Length of Visible Light 12h 15m
Length of Day
11h 18m
Waning Gibbous, 66% of the Moon is Illuminated
Mar 3
Waning Gibbous
Mar 4
Last Quarter
Mar 11
New
Mar 19
First Quarter
Mar 27
Full

Hourly Weather History & Observations

Time (CET) Temp. Windchill Dew Point Humidity Pressure Visibility Wind Dir Wind Speed Gust Speed Precip Events Conditions
6:00 AM 41.0 °F - 39.2 °F 93% 29.95 in 5.0 mi Variable 2.3 mph - N/A   Partly Cloudy
6:30 AM 41.0 °F 39.0 °F 39.2 °F 93% 29.95 in 5.0 mi SSE 3.5 mph - N/A   Partly Cloudy
7:00 AM 41.0 °F 39.0 °F 39.2 °F 93% 29.95 in 4.3 mi SSE 3.5 mph - N/A   Partly Cloudy
7:30 AM 41.0 °F 39.0 °F 37.4 °F 87% 29.95 in 4.3 mi SSE 3.5 mph - N/A   Partly Cloudy
8:00 AM 41.0 °F 38.0 °F 39.2 °F 93% 29.92 in 5.0 mi SSE 4.6 mph - N/A   Partly Cloudy
8:30 AM 41.0 °F 38.0 °F 37.4 °F 87% 29.92 in 5.0 mi South 4.6 mph - N/A   Partly Cloudy
9:00 AM 42.8 °F 41.1 °F 39.2 °F 87% 29.92 in 5.0 mi South 3.5 mph - N/A   Partly Cloudy
9:30 AM 42.8 °F 40.1 °F 39.2 °F 87% 29.92 in 5.0 mi South 4.6 mph - N/A   Unknown
10:00 AM 42.8 °F - 39.2 °F 87% 29.92 in 5.6 mi Variable 2.3 mph - N/A   Unknown
10:30 AM 44.6 °F - 41.0 °F 87% 29.92 in 5.6 mi Variable 2.3 mph - N/A   Unknown
11:00 AM 46.4 °F - 41.0 °F 81% 29.92 in 4.3 mi Variable 1.2 mph - N/A   Partly Cloudy
11:30 AM 50.0 °F - 42.8 °F 76% 29.92 in 4.3 mi Variable 2.3 mph - N/A   Partly Cloudy
12:00 PM 51.8 °F - 41.0 °F 67% 29.89 in 5.6 mi East 4.6 mph - N/A   Partly Cloudy
12:30 PM 51.8 °F - 41.0 °F 67% 29.89 in 5.6 mi East 5.8 mph - N/A   Partly Cloudy
1:00 PM 53.6 °F - 42.8 °F 67% 29.89 in 5.6 mi East 4.6 mph - N/A   Unknown
1:30 PM 51.8 °F - 44.6 °F 76% 29.86 in 5.6 mi East 4.6 mph - N/A   Unknown
2:00 PM 53.6 °F - 42.8 °F 67% 29.86 in 5.6 mi East 8.1 mph - N/A   Unknown
2:30 PM 55.4 °F - 46.4 °F 72% 29.83 in 5.6 mi East 9.2 mph - N/A   Unknown
3:00 PM 55.4 °F - 44.6 °F 67% 29.83 in 5.6 mi East 8.1 mph - N/A   Unknown
3:30 PM 55.4 °F - 44.6 °F 67% 29.80 in 5.6 mi East 8.1 mph - N/A   Unknown
4:00 PM 55.4 °F - 44.6 °F 67% 29.80 in - East 8.1 mph - N/A   Clear
4:30 PM 53.6 °F - 44.6 °F 72% 29.80 in - East 8.1 mph - N/A   Clear
5:00 PM 53.6 °F - 44.6 °F 72% 29.77 in - East 9.2 mph - N/A   Clear
5:30 PM 51.8 °F - 44.6 °F 76% 29.77 in - East 6.9 mph - N/A   Clear
6:00 PM 50.0 °F - 42.8 °F 76% 29.77 in - East 5.8 mph - N/A   Clear
7:00 PM 48.2 °F - 41.0 °F 76% 29.77 in - ESE 5.8 mph - N/A   Clear
7:30 PM 48.2 °F - 41.0 °F 76% 29.77 in - ESE 6.9 mph - N/A   Clear
8:00 PM 48.2 °F - 41.0 °F 76% 29.77 in - ESE 4.6 mph - N/A   Clear
8:30 PM 46.4 °F 45.2 °F 41.0 °F 81% 29.77 in - East 3.5 mph - N/A   Clear
9:00 PM 44.6 °F 43.1 °F 41.0 °F 87% 29.74 in - ESE 3.5 mph - N/A   Clear
9:30 PM 44.6 °F 43.1 °F 41.0 °F 87% 29.74 in - ESE 3.5 mph - N/A   Clear
10:00 PM 46.4 °F 45.2 °F 41.0 °F 81% 29.74 in - SSE 3.5 mph - N/A   Clear
10:30 PM 44.6 °F - 39.2 °F 81% 29.74 in - Variable 1.2 mph - N/A   Clear
11:00 PM 46.4 °F - 41.0 °F 81% 29.71 in - Variable 1.2 mph - N/A   Clear
11:30 PM 46.4 °F 45.2 °F 41.0 °F 81% 29.71 in - South 3.5 mph - N/A   Clear